[[{"header":{"parameterUnit":"m.s-1","parameterCategory":1,"la1":30.2991,"la2":30.254,"lo1":-89.0895,"lo2":-89.0444,"dy":0.0017,"dx":0.0017,"nx":28,"ny":28,"refTime":"2025-03-02T09:00:00:Z","depth":0,"parameterNumber":2,"parameterNumberName":"U-component_of_WINDS"},"data":[0,0,0,0,0,0,0,0,0,0,0,0,0,0,0,0,0,0,0,0,0,0,0,0,0,0,0,0,0,0,0,0,0,0,0,0,0,0,0,0,0,0,0,0,0,0,0,0,0,0,0,0,0,0,0,0,0,0,-4.7273,-4.7273,0,-4.7291,-4.7291,-4.7291,-4.7108,-4.7103,-4.7098,-4.7093,-4.7114,-4.7119,-4.7124,0,0,0,0,0,0,0,0,0,0,0,0,0,-4.7081,-4.7086,-4.7273,-4.7273,-4.7273,-4.729,-4.7291,-4.7291,-4.7109,-4.7103,-4.7097,-4.7091,-4.7112,-4.7118,-4.7125,0,0,0,0,0,0,0,0,0,0,0,0,0,-4.7139,-4.7087,-4.7273,-4.7184,-4.7177,-4.729,-4.7291,-4.7291,-4.711,-4.7103,-4.7095,-4.7088,-4.711,-4.7118,-4.7126,-4.7325,0,0,-4.715,-4.7153,0,0,0,0,0,0,0,0,-4.7135,-4.7146,-4.7197,-4.7191,-4.7182,-4.7189,-4.723,-4.7303,-4.7112,-4.7136,-4.7093,-4.7084,-4.7145,-4.715,-4.717,-4.7326,-4.7327,-4.715,-4.7155,-4.7158,-4.7161,0,0,0,0,0,0,0,-4.7132,-4.7144,-4.728,-4.7198,-4.7189,-4.7144,-4.7144,-4.7243,-4.7183,-4.7133,-4.712,-4.7124,-4.714,-4.7163,-4.7169,-4.7328,-4.715,-4.7157,-4.7162,-4.7165,-4.7647,-4.7655,0,0,0,0,0,0,-4.714,-4.7142,-4.7279,-4.728,-4.714,-4.7154,-4.7153,-4.7195,-4.7181,-4.7172,-4.7131,-4.7116,-4.7153,-4.716,-4.7169,-4.7401,-4.7158,-4.7166,-4.717,-4.7639,-4.7649,-4.7657,0,0,0,0,0,0,-4.7136,-4.7154,-4.7278,-4.7207,-4.722,-4.7165,-4.7213,-4.7199,-4.7222,-4.7179,-4.7168,-4.7165,-4.7147,-4.7158,-4.7287,-4.7399,-4.7169,-4.7176,-4.7629,-4.7642,-4.7653,-4.7867,0,0,0,0,0,0,-4.7131,-4.7153,-4.7229,-4.721,-4.7224,-4.7397,-4.722,-4.7205,-4.7235,-4.7216,-4.7209,-4.72,-4.7142,-4.7277,-4.7295,-4.7405,-4.7183,-4.7619,-4.7635,-4.7649,-4.785,-4.7885,-4.7915,0,0,0,0,0,-4.7125,-4.7289,-4.7234,-4.7251,-4.7317,-4.7404,-4.7412,-4.7341,-4.7245,-4.732,-4.7293,-4.72,-4.7384,-4.7291,-4.7311,-4.7425,-4.7612,-4.763,-4.7648,-4.7835,-4.7878,-4.7914,0,0,0,0,0,0,-4.7323,-4.7285,-4.7223,-4.7386,-4.74,-4.7373,-4.7465,-4.7389,-4.743,-4.741,-4.7321,-4.7321,-4.7465,-4.7458,-4.7356,-4.7617,-4.7481,-4.7504,-4.7616,-4.7657,-4.7689,-4.7688,-4.7189,0,0,0,0,0,-4.7386,-4.7459,-4.7422,-4.7569,-4.7579,-4.7522,-4.7557,-4.7501,-4.7511,-4.7516,-4.7498,-4.7512,-4.7572,-4.7614,-4.7667,-4.7848,-4.7843,-4.7936,-4.7969,-4.7996,-4.8016,-4.811,-4.815,-4.7717,-4.7717,-4.7717,0,0,-4.7516,-4.7504,-4.7556,-4.7609,-4.7612,-4.769,-4.7528,-4.7617,-4.7673,-4.753,-4.765,-4.7638,-4.7647,-4.7803,-4.787,-4.7801,-4.8135,-4.8019,-4.8041,-4.8047,-4.8133,-4.8174,-4.821,-4.7729,-4.7727,-4.7725,0,0,-4.7793,-4.7792,-4.7913,-4.792,-4.7927,-4.7888,-4.7917,-4.7902,-4.7888,-4.8007,-4.79,-4.7966,-4.8073,-4.8083,-4.8103,-4.8382,-4.8298,-4.8402,-4.8573,-4.8665,-4.8699,-4.8729,-4.8827,-4.8864,-4.8423,-4.8424,-4.8424,0,-4.7954,-4.8066,-4.7986,-4.8082,-4.8107,-4.798,-4.8102,-4.8113,-4.8138,-4.8159,-4.8081,-4.821,-4.8208,-4.8363,-4.8431,-4.8452,-4.8482,-4.8403,-4.87,-4.8729,-4.8756,-4.8849,-4.8887,-4.8436,-4.8435,-4.8433,-4.8432,0,-4.8263,-4.8342,-4.844,-4.8465,-4.8502,-4.8611,-4.8548,-4.8595,-4.8535,-4.8504,-4.8627,-4.8619,-4.8668,-4.8701,-4.8645,-4.8848,-4.8805,-4.8716,-4.8577,-4.8811,-4.8897,-4.8932,-4.8454,-4.845,-4.8446,-4.8443,0,0,-4.8666,-4.8644,-4.8682,-4.8691,-4.8689,-4.8749,-4.8851,-4.8898,-4.894,-4.8961,-4.9044,-4.9137,-4.9053,-4.9075,-4.9019,-4.91,-4.932,-4.8999,-4.8998,-4.9059,-4.9543,-4.961,-4.9652,-4.9264,-4.9271,-4.9276,-4.9541,0,-4.8934,-4.9107,-4.9038,-4.9217,-4.9289,-4.9168,-4.9257,-4.9266,-4.9239,-4.9296,-4.9267,-4.9333,-4.9218,-4.9231,-4.9305,-4.9278,-4.9416,-4.9258,-4.9341,-4.9345,-4.9342,-4.9697,-4.9769,-5.0019,-4.9575,-4.958,-4.9584,0,-4.927,-4.9304,-4.949,-4.9474,-4.9501,-4.9583,-4.9619,-4.9675,-4.9682,-4.9657,-4.9682,-4.9607,-4.9706,-4.9568,-4.9703,-4.9597,-4.9627,-4.9619,-4.9627,-4.9631,-4.9479,-4.9711,-5.0098,-5.0136,-4.9637,-4.9632,-4.9629,0,-4.9544,-4.9636,-4.9758,-4.977,-4.9755,-4.9815,-4.9811,-4.981,-4.9842,-4.9875,-4.9894,-4.9938,-4.9962,-4.9998,-4.9937,-4.9843,-5.0081,-4.9938,-5.0062,-5.0064,-5.0118,-5.0115,-5.0514,-5.0139,-5.0138,-5.0138,-5.0137,0,-4.985,-4.9969,-4.9881,-4.9957,-5.0085,-5.0004,-5.0134,-5.0117,-5.0118,-5.0188,-5.0086,-5.0155,-5.007,-5.013,-5.0083,-5.0201,-5.0214,-5.0196,-5.0182,-5.0204,-5.0207,-5.0222,-5.0203,-5.0148,-5.0145,-5.0143,-5.0142,0,-5.0177,-5.0123,-5.0249,-5.0223,-5.022,-5.0316,-5.0294,-5.0363,-5.0328,-5.0418,-5.0435,-5.0382,-5.0447,-5.039,-5.0453,-5.0421,-5.0578,-5.054,-5.0576,-5.0565,-5.0692,-5.0681,-5.1115,-5.1167,-5.076,-5.0764,-5.0767,0,-5.0376,-5.0464,-5.0447,-5.0486,-5.0489,-5.0554,-5.0585,-5.0509,-5.0546,-5.056,-5.0627,-5.0683,-5.0724,-5.0834,-5.0801,-5.0849,-5.081,-5.0959,-5.0816,-5.0836,-5.0811,-5.0806,-5.0814,-5.0988,-5.0993,-5.0996,-5.1,0,-5.0734,-5.0702,-5.0751,-5.0792,-5.0832,-5.086,-5.088,-5.0919,-5.084,-5.0887,-5.0951,-5.0983,-5.1047,-5.1104,-5.114,-5.1136,-5.1056,-5.1045,-5.1076,-5.1099,-5.1116,-5.1108,-5.0654,-5.1035,-5.1031,-5.1029,-5.1027,-5.1026,-5.1002,-5.1074,-5.1073,-5.1131,-5.1137,-5.1158,-5.1221,-5.1195,-5.1247,-5.1292,-5.1244,-5.1323,-5.1326,-5.1366,-5.1372,-5.1433,-5.137,-5.1416,-5.1427,-5.1439,-5.1457,-5.1108,-5.1439,-5.1438,-5.1437,-5.1436,-5.1435,0,-5.1353,-5.1346,-5.14,-5.1431,-5.1476,-5.1395,-5.1413,-5.1457,-5.1527,-5.1537,-5.1578,-5.1652,-5.1707,-5.1678,-5.1725,-5.1779,-5.1743,-5.1794,-5.1789,-5.1789,-5.1511,-5.1478,-5.1822,-5.1822,-5.1822,-5.1822,-5.1822,-5.1822,-5.1541,-5.1658,-5.1627,-5.1746,-5.1738,-5.1813,-5.183,-5.1849,-5.1856,-5.1943,-5.1987,-5.1968,-5.1962,-5.2007,-5.2054,-5.2044,-5.2065,-5.213,-5.2107,-5.1847,-5.1809,-5.1773,-5.1742,-5.2135,-5.2136,-5.238,-5.2382,-5.2384]},{"header":{"parameterUnit":"m.s-1","parameterCategory":1,"la1":30.2991,"la2":30.254,"lo1":-89.0895,"lo2":-89.0444,"dy":0.0017,"dx":0.0017,"nx":28,"ny":28,"refTime":"2025-03-02T09:00:00:Z","depth":0,"parameterNumber":3,"parameterNumberName":"V-component_of_WINDS"},"data":[0,0,0,0,0,0,0,0,0,0,0,0,0,0,0,0,0,0,0,0,0,0,0,0,0,0,0,0,0,0,0,0,0,0,0,0,0,0,0,0,0,0,0,0,0,0,0,0,0,0,0,0,0,0,0,0,0,0,-1.9151,-1.9151,0,-1.9173,-1.9173,-1.9173,-1.917,-1.917,-1.9169,-1.9169,-1.919,-1.9191,-1.9192,0,0,0,0,0,0,0,0,0,0,0,0,0,-1.9104,-1.9105,-1.9151,-1.9151,-1.9152,-1.9173,-1.9173,-1.9173,-1.917,-1.917,-1.9169,-1.9169,-1.919,-1.9191,-1.9192,0,0,0,0,0,0,0,0,0,0,0,0,0,-1.9125,-1.9105,-1.9151,-1.9153,-1.9153,-1.9173,-1.9173,-1.9173,-1.917,-1.9169,-1.9169,-1.9168,-1.9189,-1.9191,-1.9192,-1.9211,0,0,-1.9196,-1.9197,0,0,0,0,0,0,0,0,-1.9124,-1.9127,-1.9152,-1.9152,-1.9153,-1.9168,-1.9164,-1.9186,-1.917,-1.9164,-1.9169,-1.9168,-1.9183,-1.9185,-1.919,-1.9212,-1.9213,-1.9196,-1.9197,-1.9198,-1.9198,0,0,0,0,0,0,0,-1.9122,-1.9126,-1.916,-1.9152,-1.9153,-1.9151,-1.9154,-1.9168,-1.9176,-1.9164,-1.9164,-1.9167,-1.9183,-1.9189,-1.9191,-1.9214,-1.9196,-1.9197,-1.9198,-1.9199,-1.925,-1.9251,0,0,0,0,0,0,-1.9121,-1.9125,-1.9159,-1.916,-1.9137,-1.9152,-1.9155,-1.9164,-1.9176,-1.9177,-1.9167,-1.9166,-1.9187,-1.9189,-1.9191,-1.9213,-1.9198,-1.9199,-1.92,-1.925,-1.925,-1.9251,0,0,0,0,0,0,-1.912,-1.9124,-1.9158,-1.9142,-1.9147,-1.9154,-1.9164,-1.9164,-1.917,-1.9178,-1.9179,-1.9172,-1.9186,-1.9189,-1.9206,-1.9214,-1.92,-1.9201,-1.9249,-1.925,-1.9251,-1.9258,0,0,0,0,0,0,-1.9118,-1.9124,-1.9132,-1.9143,-1.9147,-1.9173,-1.9164,-1.9165,-1.9173,-1.9172,-1.9183,-1.9184,-1.9186,-1.9204,-1.9207,-1.9216,-1.9202,-1.9248,-1.9249,-1.925,-1.9257,-1.9259,-1.9261,0,0,0,0,0,-1.9117,-1.9134,-1.9132,-1.9137,-1.9158,-1.9174,-1.9176,-1.9179,-1.9173,-1.9181,-1.9186,-1.9184,-1.9213,-1.9206,-1.9209,-1.9218,-1.9248,-1.9249,-1.925,-1.9257,-1.9259,-1.9261,0,0,0,0,0,0,-1.9124,-1.9135,-1.9134,-1.9155,-1.9163,-1.9173,-1.9183,-1.9182,-1.9192,-1.9191,-1.9193,-1.9196,-1.9212,-1.9217,-1.9209,-1.9236,-1.9229,-1.9231,-1.9233,-1.9235,-1.9237,-1.9235,-1.9203,0,0,0,0,0,-1.9128,-1.914,-1.9149,-1.9167,-1.9171,-1.9176,-1.9183,-1.9184,-1.9193,-1.9197,-1.9203,-1.9211,-1.9221,-1.9229,-1.9239,-1.9258,-1.9259,-1.9266,-1.9268,-1.9269,-1.9271,-1.9279,-1.9281,-1.9255,-1.9255,-1.9255,0,0,-1.9136,-1.9144,-1.9152,-1.9168,-1.9175,-1.9186,-1.9179,-1.9193,-1.9201,-1.9199,-1.9214,-1.9219,-1.9228,-1.9245,-1.9253,-1.925,-1.9278,-1.9271,-1.9272,-1.9273,-1.928,-1.9283,-1.9285,-1.9256,-1.9256,-1.9256,0,0,-1.9157,-1.9165,-1.9179,-1.9186,-1.9196,-1.9199,-1.9202,-1.9212,-1.9215,-1.923,-1.9228,-1.9238,-1.9257,-1.9263,-1.9268,-1.9289,-1.9286,-1.9292,-1.9301,-1.9309,-1.9311,-1.9313,-1.9319,-1.9321,-1.9294,-1.9294,-1.9294,0,-1.9167,-1.9185,-1.9187,-1.92,-1.9206,-1.9204,-1.9218,-1.9224,-1.9237,-1.9241,-1.9237,-1.9259,-1.9265,-1.9283,-1.9287,-1.9293,-1.9295,-1.9291,-1.9311,-1.9313,-1.9315,-1.932,-1.9323,-1.9294,-1.9294,-1.9294,-1.9294,0,-1.9194,-1.9207,-1.9217,-1.9229,-1.9236,-1.925,-1.9253,-1.926,-1.926,-1.9263,-1.9278,-1.9285,-1.9295,-1.93,-1.93,-1.9317,-1.9314,-1.9311,-1.9303,-1.9318,-1.9323,-1.9325,-1.9295,-1.9295,-1.9295,-1.9295,0,0,-1.9222,-1.9233,-1.9237,-1.9241,-1.9251,-1.926,-1.9272,-1.9283,-1.9288,-1.9297,-1.9306,-1.9321,-1.9317,-1.9323,-1.9324,-1.9331,-1.9345,-1.9326,-1.9327,-1.9328,-1.9361,-1.9364,-1.9366,-1.9343,-1.9344,-1.9344,-1.936,0,-1.9243,-1.9265,-1.9266,-1.9285,-1.9296,-1.9293,-1.9303,-1.9309,-1.9312,-1.932,-1.9323,-1.9333,-1.9328,-1.9331,-1.9338,-1.9342,-1.9351,-1.9341,-1.9351,-1.9351,-1.9348,-1.9369,-1.9372,-1.9387,-1.9363,-1.9363,-1.9363,0,-1.9271,-1.9279,-1.9299,-1.9305,-1.931,-1.9319,-1.9327,-1.9336,-1.9343,-1.9344,-1.935,-1.9349,-1.936,-1.9352,-1.9366,-1.9359,-1.9363,-1.9365,-1.9366,-1.9366,-1.9358,-1.9369,-1.9392,-1.9394,-1.9367,-1.9366,-1.9366,0,-1.9287,-1.9303,-1.9317,-1.9321,-1.9329,-1.9335,-1.9338,-1.9344,-1.935,-1.9357,-1.936,-1.9369,-1.9373,-1.9379,-1.938,-1.9375,-1.9394,-1.9387,-1.9394,-1.9394,-1.9398,-1.9398,-1.9421,-1.9402,-1.9402,-1.9402,-1.9402,0,-1.931,-1.9322,-1.9324,-1.9332,-1.9345,-1.9345,-1.9358,-1.9361,-1.9366,-1.9374,-1.9372,-1.9379,-1.938,-1.9387,-1.9388,-1.9399,-1.9401,-1.9402,-1.9402,-1.9401,-1.9401,-1.9404,-1.9403,-1.9403,-1.9403,-1.9403,-1.9402,0,-1.933,-1.9332,-1.9346,-1.9352,-1.9354,-1.9363,-1.9367,-1.9374,-1.9376,-1.9386,-1.9388,-1.9391,-1.9399,-1.9401,-1.9411,-1.9411,-1.9424,-1.9423,-1.9421,-1.9421,-1.9428,-1.9427,-1.9453,-1.9456,-1.9436,-1.9436,-1.9436,0,-1.9344,-1.9353,-1.9359,-1.9364,-1.9368,-1.9376,-1.9381,-1.9382,-1.9387,-1.9394,-1.94,-1.9408,-1.9414,-1.9427,-1.943,-1.9437,-1.9436,-1.9444,-1.9437,-1.9436,-1.9434,-1.9433,-1.9434,-1.9446,-1.9446,-1.9446,-1.9446,0,-1.9369,-1.9369,-1.9376,-1.9383,-1.9389,-1.9395,-1.9401,-1.9405,-1.9405,-1.9411,-1.9419,-1.9424,-1.9434,-1.9441,-1.9448,-1.945,-1.9448,-1.9448,-1.945,-1.945,-1.9448,-1.9448,-1.9424,-1.9448,-1.9448,-1.9447,-1.9447,-1.9447,-1.9386,-1.9393,-1.9397,-1.9405,-1.9409,-1.9414,-1.942,-1.9422,-1.9429,-1.9436,-1.9436,-1.9444,-1.9449,-1.9457,-1.946,-1.9466,-1.9464,-1.9467,-1.9467,-1.9468,-1.9468,-1.9448,-1.9468,-1.9468,-1.9468,-1.9468,-1.9468,0,-1.9409,-1.9411,-1.9418,-1.9425,-1.9431,-1.9428,-1.9433,-1.9438,-1.9445,-1.945,-1.9455,-1.9464,-1.947,-1.9473,-1.9479,-1.9483,-1.9482,-1.9485,-1.9484,-1.9485,-1.9471,-1.9468,-1.9486,-1.9486,-1.9486,-1.9486,-1.9486,-1.9486,-1.9421,-1.9432,-1.9432,-1.9445,-1.9447,-1.9455,-1.9458,-1.9462,-1.9465,-1.9474,-1.948,-1.9481,-1.9484,-1.949,-1.9496,-1.9496,-1.9498,-1.9501,-1.9501,-1.9488,-1.9486,-1.9484,-1.9481,-1.9502,-1.9502,-1.9514,-1.9514,-1.9514]}]]